Location: Newark
(40.2094°N, 3.5722°W)
Time: 19:06:53
(UTC+00:00)

N. Korean satellite - Visible Passes

Search period start: 16 October 2019 00:00
Search period end: 26 October 2019 00:00
Orbit: 455 x 508 km, 97.2° (Epoch: 15 October)

Date Brightness Start Highest point End Pass type
(mag) Time Alt. Az. Time Alt. Az. Time Alt. Az.
17 Oct 9.9 18:15:57 10° SW 18:18:15 17° W 18:20:34 10° NW visible
18 Oct 8.6 05:41:28 10° NNE 05:44:47 34° E 05:48:07 10° SSE visible
19 Oct 10.0 05:16:57 10° NE 05:19:22 17° E 05:21:48 10° SE visible
21 Oct 7.3 05:58:43 10° NNE 06:02:19 60° E 06:05:56 10° S visible
21 Oct 9.6 18:07:42 10° SSW 18:10:22 21° W 18:13:03 10° NW visible
22 Oct 9.0 05:33:47 10° NE 05:36:57 28° E 05:40:08 10° SSE visible
23 Oct 10.2 05:09:33 10° ENE 05:11:31 14° E 05:13:28 10° SE visible
24 Oct 10.2 18:26:20 10° WSW 18:27:56 13° W 18:29:34 10° WNW visible
25 Oct 7.9 05:50:55 10° NNE 05:54:29 47° E 05:58:03 10° S visible
25 Oct 9.1 17:59:31 10° SSW 18:02:28 26° W 18:05:27 10° NW visible
